Retour au catalogue

SL-16 DEB

ActifLEO
NORAD 20626·DEBRIS·🇷🇺 Russia

Lancé May 22, 1990 depuis Baikonur Cosmodrome

Loading…

Prochains Passages (prochaines 24 heures)

TLE

FraisSource: Space-Track

Époque: Sep 14, 2026, 09:18 UTC

1 20626U 90046C   26257.38771492 -.00000027  00000-0  14273-4 0  9999
2 20626  71.0172  31.6840 0206031  16.8124  14.2778 13.72982582818342

Suivez SL-16 DEB en temps réel avec AllMySat

Download on the App Store